Hourly Weather Barsuki

Today, 18 April, Sunday

Time Temperature Precipitation Wind Pressure Humidity
00:00 +8°C° 0.1 mm 5 mps 744 mmHg 88%
01:00 +8°C° 0.1 mm 5 mps 744 mmHg 88%
02:00 +8°C° 0.1 mm 5 mps 744 mmHg 88%
03:00 +7°C° 0 mm 5 mps 744 mmHg 88%
04:00 +6°C° 0 mm 5 mps 744 mmHg 89%
05:00 +6°C° 0 mm 5 mps 744 mmHg 89%
06:00 +6°C° 0 mm 5 mps 744 mmHg 85%
07:00 +7°C° 0 mm 6 mps 744 mmHg 80%
08:00 +7°C° 0 mm 6 mps 744 mmHg 75%
09:00 +8°C° 0 mm 6 mps 745 mmHg 73%
10:00 +9°C° 0 mm 6 mps 745 mmHg 71%
11:00 +9°C° 0 mm 6 mps 745 mmHg 69%
12:00 +9°C° 0 mm 6 mps 746 mmHg 71%
13:00 +8°C° 0 mm 5 mps 746 mmHg 73%
14:00 +8°C° 0 mm 5 mps 746 mmHg 75%
15:00 +7°C° 0 mm 4 mps 746 mmHg 76%
16:00 +7°C° 0 mm 4 mps 747 mmHg 77%
17:00 +7°C° 0 mm 4 mps 747 mmHg 79%
18:00 +7°C° 0 mm 4 mps 747 mmHg 81%
19:00 +7°C° 0 mm 3 mps 747 mmHg 84%
20:00 +5°C° 0 mm 3 mps 747 mmHg 86%
21:00 +5°C° 0 mm 3 mps 747 mmHg 87%
22:00 +4°C° 0 mm 3 mps 747 mmHg 88%
23:00 +4°C° 0 mm 4 mps 747 mmHg 89%

Tomorrow, 19 April, Monday

Time Temperature Precipitation Wind Pressure Humidity
00:00 +4°C° 0 mm 4 mps 747 mmHg 89%
01:00 +4°C° 0 mm 4 mps 747 mmHg 88%
02:00 +4°C° 0 mm 4 mps 747 mmHg 88%
03:00 +4°C° 0 mm 4 mps 747 mmHg 88%
04:00 +4°C° 0 mm 3 mps 747 mmHg 88%
05:00 +4°C° 0 mm 3 mps 747 mmHg 88%
06:00 +5°C° 0 mm 3 mps 747 mmHg 84%
07:00 +5°C° 0 mm 3 mps 747 mmHg 80%
08:00 +7°C° 0 mm 3 mps 748 mmHg 76%
09:00 +6°C° 0 mm 4 mps 747 mmHg 77%
10:00 +7°C° 0 mm 4 mps 747 mmHg 77%
11:00 +7°C° 0 mm 4 mps 747 mmHg 78%
12:00 +8°C° 0.1 mm 5 mps 747 mmHg 74%
13:00 +8°C° 0.1 mm 5 mps 747 mmHg 70%
14:00 +9°C° 0.1 mm 5 mps 747 mmHg 66%
15:00 +9°C° 0.1 mm 5 mps 747 mmHg 70%
16:00 +8°C° 0.1 mm 5 mps 747 mmHg 75%
17:00 +7°C° 0.1 mm 5 mps 747 mmHg 79%
18:00 +7°C° 0 mm 5 mps 747 mmHg 82%
19:00 +6°C° 0 mm 5 mps 747 mmHg 84%
20:00 +5°C° 0 mm 5 mps 747 mmHg 87%
21:00 +5°C° 0 mm 5 mps 747 mmHg 85%
22:00 +5°C° 0 mm 4 mps 747 mmHg 84%
23:00 +4°C° 0 mm 4 mps 746 mmHg 82%

Day after tomorrow, 20 April, Tuesday

Time Temperature Precipitation Wind Pressure Humidity
00:00 +4°C° 0 mm 4 mps 746 mmHg 84%
01:00 +4°C° 0 mm 4 mps 746 mmHg 86%
02:00 +3°C° 0 mm 3 mps 745 mmHg 88%
03:00 +3°C° 0.1 mm 3 mps 745 mmHg 91%
04:00 +3°C° 0.1 mm 4 mps 745 mmHg 94%
05:00 +1°C° 0.1 mm 4 mps 744 mmHg 96%
06:00 +1°C° 0.1 mm 4 mps 744 mmHg 96%
07:00 +1°C° 0.1 mm 4 mps 744 mmHg 96%
08:00 +1°C° 0.1 mm 4 mps 744 mmHg 96%
09:00 +1°C° 0.2 mm 4 mps 743 mmHg 96%
10:00 +1°C° 0.2 mm 4 mps 743 mmHg 96%
11:00 +1°C° 0.2 mm 4 mps 743 mmHg 97%
12:00 +1°C° 0.2 mm 4 mps 743 mmHg 97%
13:00 +1°C° 0.2 mm 4 mps 742 mmHg 96%
14:00 +3°C° 0.2 mm 4 mps 742 mmHg 96%
15:00 +3°C° 0 mm 4 mps 741 mmHg 96%
16:00 +3°C° 0 mm 4 mps 741 mmHg 96%
17:00 +3°C° 0 mm 4 mps 741 mmHg 96%
18:00 +2°C° 0.1 mm 5 mps 740 mmHg 96%
19:00 +2°C° 0.1 mm 5 mps 740 mmHg 96%
20:00 +2°C° 0.1 mm 5 mps 739 mmHg 96%
21:00 +2°C° 0.5 mm 5 mps 739 mmHg 96%
22:00 +2°C° 0.5 mm 6 mps 738 mmHg 96%
23:00 +2°C° 0.5 mm 6 mps 737 mmHg 96%

21 April, Wednesday

Time Temperature Precipitation Wind Pressure Humidity
00:00 +1°C° 0.5 mm 6 mps 736 mmHg 96%
01:00 +1°C° 0.5 mm 6 mps 736 mmHg 96%
02:00 +1°C° 0.5 mm 6 mps 735 mmHg 96%
03:00 +1°C° 0.7 mm 6 mps 735 mmHg 96%
04:00 +1°C° 0.7 mm 6 mps 735 mmHg 96%
05:00 +1°C° 0.7 mm 6 mps 734 mmHg 96%
06:00 +1°C° 0.6 mm 6 mps 734 mmHg 96%
07:00 0°C° 0.6 mm 7 mps 734 mmHg 96%
08:00 0°C° 0.6 mm 7 mps 734 mmHg 96%
09:00 0°C° 0.3 mm 7 mps 734 mmHg 94%
10:00 0°C° 0.3 mm 7 mps 735 mmHg 93%
11:00 +2°C° 0.3 mm 6 mps 735 mmHg 91%
12:00 +2°C° 0.2 mm 6 mps 735 mmHg 88%
13:00 +3°C° 0.2 mm 6 mps 736 mmHg 85%
14:00 +4°C° 0.2 mm 6 mps 736 mmHg 82%
15:00 +5°C° 0 mm 5 mps 737 mmHg 79%
16:00 +6°C° 0 mm 5 mps 737 mmHg 76%
17:00 +6°C° 0 mm 4 mps 738 mmHg 73%
18:00 +5°C° 0 mm 4 mps 738 mmHg 75%
19:00 +4°C° 0 mm 3 mps 739 mmHg 78%
20:00 +4°C° 0 mm 3 mps 739 mmHg 80%
21:00 +3°C° 0 mm 3 mps 739 mmHg 82%
22:00 +3°C° 0 mm 3 mps 740 mmHg 84%
23:00 +2°C° 0 mm 3 mps 740 mmHg 86%

22 April, Thursday

Time Temperature Precipitation Wind Pressure Humidity
00:00 +2°C° 0 mm 3 mps 740 mmHg 87%
01:00 +2°C° 0 mm 3 mps 741 mmHg 88%
02:00 +2°C° 0 mm 3 mps 741 mmHg 89%
03:00 +2°C° 0 mm 3 mps 741 mmHg 90%
04:00 +3°C° 0 mm 2 mps 742 mmHg 91%
05:00 +3°C° 0 mm 2 mps 742 mmHg 92%
06:00 +4°C° 0 mm 2 mps 742 mmHg 88%
07:00 +6°C° 0 mm 2 mps 743 mmHg 83%
08:00 +8°C° 0 mm 2 mps 743 mmHg 79%
09:00 +9°C° 0.1 mm 3 mps 743 mmHg 72%
10:00 +11°C° 0.1 mm 3 mps 744 mmHg 66%
11:00 +12°C° 0.1 mm 3 mps 744 mmHg 59%
12:00 +13°C° 0.3 mm 4 mps 744 mmHg 58%
13:00 +13°C° 0.3 mm 4 mps 744 mmHg 57%
14:00 +13°C° 0.3 mm 5 mps 744 mmHg 56%
15:00 +13°C° 0.2 mm 4 mps 744 mmHg 59%
16:00 +13°C° 0.2 mm 3 mps 744 mmHg 62%
17:00 +13°C° 0.2 mm 3 mps 745 mmHg 64%
18:00 +12°C° 0 mm 3 mps 745 mmHg 68%
19:00 +11°C° 0 mm 3 mps 745 mmHg 71%
20:00 +10°C° 0 mm 2 mps 746 mmHg 75%
21:00 +10°C° 0 mm 2 mps 746 mmHg 76%
22:00 +9°C° 0 mm 2 mps 746 mmHg 77%
23:00 +9°C° 0 mm 2 mps 746 mmHg 78%

23 April, Friday

Time Temperature Precipitation Wind Pressure Humidity
00:00 +8°C° 0 mm 2 mps 746 mmHg 82%
01:00 +7°C° 0 mm 2 mps 746 mmHg 85%
02:00 +7°C° 0 mm 2 mps 746 mmHg 88%
03:00 +6°C° 0 mm 2 mps 746 mmHg 90%
04:00 +6°C° 0 mm 2 mps 747 mmHg 91%
05:00 +6°C° 0 mm 2 mps 747 mmHg 93%
06:00 +7°C° 0 mm 3 mps 747 mmHg 88%
07:00 +9°C° 0 mm 3 mps 747 mmHg 83%
08:00 +10°C° 0 mm 4 mps 747 mmHg 78%
09:00 +12°C° 0 mm 4 mps 747 mmHg 72%
10:00 +13°C° 0 mm 4 mps 747 mmHg 67%
11:00 +15°C° 0 mm 4 mps 748 mmHg 62%
12:00 +15°C° 0.3 mm 4 mps 748 mmHg 58%
13:00 +17°C° 0.3 mm 4 mps 748 mmHg 55%
14:00 +17°C° 0.3 mm 4 mps 748 mmHg 52%
15:00 +17°C° 0.2 mm 4 mps 748 mmHg 55%
16:00 +15°C° 0.2 mm 4 mps 748 mmHg 58%
17:00 +15°C° 0.2 mm 4 mps 748 mmHg 62%
18:00 +13°C° 0 mm 4 mps 748 mmHg 65%
19:00 +12°C° 0 mm 3 mps 749 mmHg 69%
20:00 +11°C° 0 mm 3 mps 749 mmHg 73%
21:00 +10°C° 0 mm 3 mps 749 mmHg 74%
22:00 +10°C° 0 mm 3 mps 749 mmHg 76%
23:00 +10°C° 0 mm 3 mps 749 mmHg 78%
Show more